[[{"header":{"parameterUnit":"m.s-1","parameterCategory":1,"la1":30.2991,"la2":30.254,"lo1":-89.0895,"lo2":-89.0444,"dy":0.0017,"dx":0.0017,"nx":28,"ny":28,"refTime":"2024-12-02T03:00:00:Z","depth":0,"parameterNumber":2,"parameterNumberName":"U-component_of_WINDS"},"data":[0,0,0,0,0,0,0,0,0,0,0,0,0,0,0,0,0,0,0,0,0,0,0,0,0,0,0,0,0,0,0,0,0,0,0,0,0,0,0,0,0,0,0,0,0,0,0,0,0,0,0,0,0,0,0,0,0,0,-0.2048,-0.2047,0,-0.2019,-0.2019,-0.2018,-0.1981,-0.1981,-0.198,-0.198,-0.1951,-0.1951,-0.195,0,0,0,0,0,0,0,0,0,0,0,0,0,-0.207,-0.207,-0.2048,-0.2047,-0.2047,-0.2019,-0.2019,-0.2018,-0.1981,-0.1981,-0.198,-0.1979,-0.1951,-0.1951,-0.195,0,0,0,0,0,0,0,0,0,0,0,0,0,-0.2053,-0.207,-0.2048,-0.2025,-0.2023,-0.2019,-0.2019,-0.2018,-0.1982,-0.1981,-0.198,-0.1979,-0.1951,-0.1951,-0.195,-0.1967,0,0,-0.195,-0.1949,0,0,0,0,0,0,0,0,-0.2054,-0.2052,-0.2029,-0.2027,-0.2024,-0.2003,-0.2016,-0.2001,-0.1982,-0.1997,-0.198,-0.1978,-0.1969,-0.1967,-0.1964,-0.1965,-0.1964,-0.1949,-0.1949,-0.1949,-0.1949,0,0,0,0,0,0,0,-0.2055,-0.2053,-0.2036,-0.2028,-0.2026,-0.2016,-0.2013,-0.2013,-0.1989,-0.1996,-0.1993,-0.199,-0.1967,-0.1964,-0.1963,-0.1964,-0.1949,-0.1949,-0.1949,-0.1949,-0.1978,-0.1978,0,0,0,0,0,0,-0.206,-0.2054,-0.2037,-0.2035,-0.2037,-0.2017,-0.2013,-0.2011,-0.1988,-0.1984,-0.1991,-0.1989,-0.1965,-0.1963,-0.1962,-0.198,-0.1949,-0.1949,-0.1949,-0.1977,-0.1978,-0.1979,0,0,0,0,0,0,-0.206,-0.2059,-0.2038,-0.2044,-0.2041,-0.2017,-0.2015,-0.201,-0.2007,-0.1985,-0.198,-0.1992,-0.1964,-0.1962,-0.1966,-0.1978,-0.1949,-0.1948,-0.1976,-0.1977,-0.1978,-0.2016,0,0,0,0,0,0,-0.2061,-0.2059,-0.2065,-0.2045,-0.2041,-0.2043,-0.2016,-0.2011,-0.2007,-0.2003,-0.1985,-0.1981,-0.1963,-0.1966,-0.1966,-0.1977,-0.1948,-0.1974,-0.1976,-0.1978,-0.2014,-0.2019,-0.2023,0,0,0,0,0,-0.2062,-0.2077,-0.2066,-0.2064,-0.2048,-0.2044,-0.2042,-0.2021,-0.2008,-0.2014,-0.1999,-0.1981,-0.1977,-0.1967,-0.1966,-0.1978,-0.1973,-0.1976,-0.1978,-0.2012,-0.2018,-0.2023,0,0,0,0,0,0,-0.21,-0.2074,-0.2061,-0.207,-0.2059,-0.2038,-0.2045,-0.2028,-0.2022,-0.2019,-0.1994,-0.199,-0.1997,-0.1987,-0.1977,-0.1992,-0.1972,-0.1974,-0.1999,-0.2004,-0.2009,-0.2012,-0.1948,0,0,0,0,0,-0.2109,-0.2108,-0.2085,-0.2095,-0.2091,-0.2069,-0.2066,-0.2051,-0.204,-0.2035,-0.2021,-0.201,-0.2007,-0.2005,-0.2,-0.2012,-0.2008,-0.2019,-0.2024,-0.2028,-0.203,-0.2036,-0.2042,-0.1986,-0.1986,-0.1986,0,0,-0.2128,-0.2114,-0.2115,-0.2102,-0.2093,-0.2092,-0.2065,-0.2066,-0.2066,-0.2035,-0.2038,-0.2027,-0.2014,-0.2022,-0.2025,-0.2014,-0.2045,-0.2031,-0.2034,-0.2034,-0.2039,-0.2045,-0.2049,-0.1987,-0.1987,-0.1987,0,0,-0.2164,-0.2152,-0.216,-0.215,-0.2136,-0.2121,-0.2123,-0.2103,-0.2095,-0.2097,-0.2074,-0.2073,-0.2067,-0.2059,-0.2054,-0.2085,-0.2069,-0.2084,-0.2109,-0.2115,-0.212,-0.2123,-0.2136,-0.214,-0.2086,-0.2086,-0.2086,0,-0.219,-0.2189,-0.2165,-0.2168,-0.2163,-0.2135,-0.2142,-0.2134,-0.2119,-0.2116,-0.2104,-0.2096,-0.2085,-0.2091,-0.2099,-0.2095,-0.2097,-0.2087,-0.2121,-0.2124,-0.2128,-0.2139,-0.2144,-0.2088,-0.2088,-0.2088,-0.2088,0,-0.2222,-0.2221,-0.2229,-0.2215,-0.221,-0.2215,-0.2193,-0.2191,-0.2177,-0.2163,-0.2166,-0.2151,-0.2143,-0.2143,-0.2129,-0.2147,-0.2141,-0.2125,-0.2105,-0.2135,-0.2146,-0.215,-0.2091,-0.2091,-0.209,-0.209,0,0,-0.2282,-0.2254,-0.2257,-0.2251,-0.2232,-0.2231,-0.2235,-0.2227,-0.2226,-0.2216,-0.2219,-0.2214,-0.2199,-0.2193,-0.2177,-0.2183,-0.221,-0.2166,-0.2165,-0.2176,-0.223,-0.2243,-0.2249,-0.2198,-0.2198,-0.2199,-0.2232,0,-0.2315,-0.2319,-0.2298,-0.2308,-0.2308,-0.228,-0.2283,-0.2272,-0.2259,-0.2257,-0.2242,-0.224,-0.222,-0.2216,-0.222,-0.2206,-0.222,-0.2203,-0.2201,-0.2201,-0.2207,-0.2254,-0.2268,-0.23,-0.2235,-0.2236,-0.2236,0,-0.2354,-0.2346,-0.2357,-0.2337,-0.2336,-0.2339,-0.233,-0.2328,-0.2315,-0.2305,-0.2298,-0.228,-0.2282,-0.2261,-0.2264,-0.2253,-0.225,-0.2243,-0.2243,-0.2244,-0.2222,-0.2257,-0.2309,-0.2314,-0.2242,-0.2242,-0.2241,0,-0.2399,-0.239,-0.2395,-0.239,-0.2368,-0.2371,-0.2361,-0.2347,-0.2344,-0.2336,-0.2333,-0.2325,-0.2322,-0.2316,-0.2296,-0.2282,-0.2301,-0.2279,-0.2294,-0.2295,-0.2301,-0.2301,-0.2355,-0.2297,-0.2297,-0.2297,-0.2296,0,-0.2439,-0.2446,-0.2415,-0.2419,-0.2426,-0.2401,-0.241,-0.2398,-0.2385,-0.2386,-0.2361,-0.2362,-0.2335,-0.2333,-0.2317,-0.2322,-0.232,-0.2313,-0.2309,-0.2316,-0.2317,-0.2316,-0.2314,-0.2298,-0.2297,-0.2297,-0.2297,0,-0.249,-0.247,-0.2474,-0.2452,-0.2446,-0.2453,-0.2434,-0.2437,-0.2421,-0.2423,-0.2421,-0.2398,-0.2395,-0.2373,-0.2365,-0.2354,-0.2366,-0.2357,-0.2371,-0.2368,-0.2385,-0.2385,-0.2441,-0.2448,-0.2384,-0.2385,-0.2385,0,-0.2518,-0.2523,-0.2502,-0.2501,-0.2492,-0.249,-0.2487,-0.2462,-0.2459,-0.2444,-0.2448,-0.2443,-0.2437,-0.2433,-0.2415,-0.2409,-0.24,-0.242,-0.2399,-0.2406,-0.2402,-0.2403,-0.2404,-0.2425,-0.2426,-0.2427,-0.2427,0,-0.257,-0.256,-0.2555,-0.2547,-0.2543,-0.2536,-0.2527,-0.2527,-0.25,-0.2498,-0.2494,-0.2489,-0.248,-0.2475,-0.2466,-0.2456,-0.2438,-0.2434,-0.2437,-0.2446,-0.2454,-0.2451,-0.2385,-0.2433,-0.2433,-0.2432,-0.2432,-0.2432,-0.2612,-0.2616,-0.2601,-0.2597,-0.2587,-0.2579,-0.258,-0.2565,-0.2561,-0.2553,-0.2538,-0.2536,-0.2522,-0.2507,-0.2499,-0.2498,-0.2487,-0.2492,-0.2493,-0.2495,-0.2499,-0.2453,-0.2495,-0.2495,-0.2495,-0.2495,-0.2495,0,-0.2664,-0.2653,-0.2649,-0.2637,-0.2634,-0.2616,-0.2605,-0.2603,-0.2602,-0.2591,-0.2585,-0.2581,-0.2576,-0.2557,-0.255,-0.2553,-0.2544,-0.2552,-0.2552,-0.2551,-0.2509,-0.2507,-0.2559,-0.2559,-0.2559,-0.2559,-0.2559,-0.2559,-0.2691,-0.2696,-0.2684,-0.2684,-0.2673,-0.2671,-0.2666,-0.2659,-0.265,-0.2646,-0.2641,-0.2629,-0.2615,-0.2607,-0.2601,-0.2596,-0.2595,-0.2606,-0.2598,-0.256,-0.2554,-0.2548,-0.2546,-0.2606,-0.2606,-0.2641,-0.2641,-0.2641]},{"header":{"parameterUnit":"m.s-1","parameterCategory":1,"la1":30.2991,"la2":30.254,"lo1":-89.0895,"lo2":-89.0444,"dy":0.0017,"dx":0.0017,"nx":28,"ny":28,"refTime":"2024-12-02T03:00:00:Z","depth":0,"parameterNumber":3,"parameterNumberName":"V-component_of_WINDS"},"data":[0,0,0,0,0,0,0,0,0,0,0,0,0,0,0,0,0,0,0,0,0,0,0,0,0,0,0,0,0,0,0,0,0,0,0,0,0,0,0,0,0,0,0,0,0,0,0,0,0,0,0,0,0,0,0,0,0,0,-2.4084,-2.4085,0,-2.4141,-2.4141,-2.4142,-2.4154,-2.4154,-2.4154,-2.4153,-2.4209,-2.421,-2.4212,0,0,0,0,0,0,0,0,0,0,0,0,0,-2.3985,-2.3987,-2.4084,-2.4085,-2.4085,-2.414,-2.4141,-2.4142,-2.4154,-2.4154,-2.4154,-2.4153,-2.4208,-2.421,-2.4212,0,0,0,0,0,0,0,0,0,0,0,0,0,-2.4033,-2.3987,-2.4084,-2.4098,-2.41,-2.414,-2.4141,-2.4142,-2.4155,-2.4154,-2.4153,-2.4153,-2.4207,-2.421,-2.4213,-2.4242,0,0,-2.4221,-2.4222,0,0,0,0,0,0,0,0,-2.403,-2.4037,-2.4095,-2.4097,-2.4099,-2.414,-2.4127,-2.4175,-2.4155,-2.4134,-2.4153,-2.4153,-2.4186,-2.419,-2.4202,-2.4244,-2.4247,-2.4221,-2.4223,-2.4224,-2.4225,0,0,0,0,0,0,0,-2.4027,-2.4034,-2.4106,-2.4096,-2.4099,-2.4101,-2.4108,-2.4136,-2.4162,-2.4136,-2.4137,-2.4143,-2.4187,-2.42,-2.4204,-2.4247,-2.4221,-2.4224,-2.4225,-2.4226,-2.4318,-2.4319,0,0,0,0,0,0,-2.4022,-2.4032,-2.4104,-2.4108,-2.4063,-2.4104,-2.4111,-2.4127,-2.4162,-2.4167,-2.4144,-2.4144,-2.4195,-2.42,-2.4206,-2.4244,-2.4224,-2.4227,-2.4228,-2.4317,-2.4318,-2.4319,0,0,0,0,0,0,-2.4019,-2.4028,-2.4102,-2.407,-2.408,-2.4106,-2.4125,-2.4129,-2.4142,-2.4168,-2.4173,-2.4152,-2.4195,-2.4202,-2.4233,-2.4246,-2.4228,-2.4231,-2.4316,-2.4317,-2.4318,-2.4318,0,0,0,0,0,0,-2.4016,-2.4027,-2.4039,-2.407,-2.4081,-2.4129,-2.4126,-2.413,-2.4147,-2.4147,-2.4177,-2.4182,-2.4195,-2.4229,-2.4236,-2.4249,-2.4233,-2.4315,-2.4317,-2.4318,-2.4317,-2.4319,-2.4321,0,0,0,0,0,-2.4013,-2.4035,-2.4039,-2.4048,-2.4097,-2.413,-2.4136,-2.4152,-2.4148,-2.4159,-2.4177,-2.4181,-2.4243,-2.4232,-2.424,-2.4254,-2.4314,-2.4316,-2.4318,-2.4317,-2.4319,-2.4321,0,0,0,0,0,0,-2.4003,-2.404,-2.4044,-2.4078,-2.4101,-2.4132,-2.4147,-2.4153,-2.4177,-2.4177,-2.4194,-2.4201,-2.4232,-2.4246,-2.4233,-2.4285,-2.4278,-2.4282,-2.4275,-2.4277,-2.4279,-2.4275,-2.4235,0,0,0,0,0,-2.4005,-2.4029,-2.406,-2.4086,-2.4098,-2.4121,-2.4136,-2.4146,-2.417,-2.4179,-2.4199,-2.4222,-2.4247,-2.4262,-2.4287,-2.4319,-2.4327,-2.4333,-2.4335,-2.4336,-2.4339,-2.4359,-2.4363,-2.4324,-2.4324,-2.4324,0,0,-2.4008,-2.4032,-2.4046,-2.4085,-2.4104,-2.4129,-2.4129,-2.4154,-2.4173,-2.4183,-2.4215,-2.423,-2.4256,-2.4289,-2.4304,-2.4302,-2.4351,-2.4338,-2.4339,-2.4341,-2.4361,-2.4365,-2.4368,-2.4326,-2.4325,-2.4325,0,0,-2.4029,-2.4048,-2.4073,-2.4093,-2.4123,-2.4138,-2.4144,-2.4174,-2.4186,-2.4218,-2.4226,-2.4248,-2.429,-2.4309,-2.4324,-2.4353,-2.4358,-2.4361,-2.437,-2.439,-2.4393,-2.4395,-2.4407,-2.4411,-2.4363,-2.4363,-2.4363,0,-2.4029,-2.4068,-2.4085,-2.4112,-2.4129,-2.4141,-2.4167,-2.4184,-2.4219,-2.4231,-2.4228,-2.4282,-2.4301,-2.4339,-2.4346,-2.4357,-2.4365,-2.4358,-2.4391,-2.4394,-2.4397,-2.4408,-2.4412,-2.4363,-2.4363,-2.4363,-2.4363,0,-2.4068,-2.4095,-2.4112,-2.4148,-2.4167,-2.4193,-2.4214,-2.4231,-2.424,-2.4255,-2.4288,-2.4311,-2.4341,-2.435,-2.4358,-2.439,-2.4388,-2.4388,-2.4382,-2.44,-2.4412,-2.4416,-2.4364,-2.4364,-2.4364,-2.4364,0,0,-2.4083,-2.413,-2.4136,-2.4153,-2.4187,-2.4208,-2.4234,-2.4265,-2.428,-2.4304,-2.4327,-2.4363,-2.4364,-2.4381,-2.4391,-2.4408,-2.4431,-2.4406,-2.4407,-2.4411,-2.4469,-2.4471,-2.4475,-2.4435,-2.4435,-2.4436,-2.4468,0,-2.4109,-2.4158,-2.4175,-2.4216,-2.4241,-2.4253,-2.4276,-2.43,-2.4315,-2.4339,-2.4355,-2.4381,-2.4379,-2.439,-2.4407,-2.4425,-2.4443,-2.4423,-2.4457,-2.4458,-2.4451,-2.4481,-2.4482,-2.451,-2.4472,-2.4473,-2.4473,0,-2.4145,-2.4171,-2.4215,-2.4248,-2.4259,-2.428,-2.431,-2.4333,-2.4359,-2.4369,-2.439,-2.4399,-2.4427,-2.4419,-2.4459,-2.4445,-2.446,-2.4471,-2.4472,-2.4477,-2.4467,-2.4487,-2.452,-2.4525,-2.448,-2.4479,-2.4479,0,-2.4153,-2.42,-2.4233,-2.4247,-2.4285,-2.43,-2.4316,-2.4342,-2.436,-2.4386,-2.4398,-2.4426,-2.4442,-2.4464,-2.4481,-2.4473,-2.452,-2.4512,-2.4529,-2.4529,-2.4539,-2.4538,-2.4576,-2.4547,-2.4546,-2.4546,-2.4546,0,-2.418,-2.4207,-2.4237,-2.4258,-2.4288,-2.4307,-2.4336,-2.4353,-2.4377,-2.4401,-2.4412,-2.4433,-2.4454,-2.4479,-2.4492,-2.4524,-2.453,-2.4539,-2.4543,-2.4539,-2.4538,-2.455,-2.4549,-2.4548,-2.4547,-2.4547,-2.4547,0,-2.4195,-2.4217,-2.4253,-2.4287,-2.4297,-2.4318,-2.4347,-2.4367,-2.4383,-2.4413,-2.4421,-2.4446,-2.4476,-2.4495,-2.4532,-2.4541,-2.4576,-2.4578,-2.4568,-2.457,-2.4586,-2.4585,-2.4633,-2.4641,-2.4605,-2.4605,-2.4605,0,-2.4212,-2.4233,-2.427,-2.4288,-2.4305,-2.4332,-2.4351,-2.437,-2.4389,-2.4423,-2.4439,-2.447,-2.4495,-2.4542,-2.4563,-2.4592,-2.4596,-2.4611,-2.46,-2.4597,-2.4598,-2.4597,-2.46,-2.4613,-2.4613,-2.4613,-2.4613,0,-2.424,-2.425,-2.4277,-2.4309,-2.4331,-2.4357,-2.4382,-2.4395,-2.4419,-2.444,-2.4471,-2.4491,-2.453,-2.4561,-2.4592,-2.4609,-2.4615,-2.4617,-2.4622,-2.462,-2.4613,-2.4619,-2.4574,-2.4616,-2.4615,-2.4615,-2.4615,-2.4615,-2.4257,-2.4277,-2.4307,-2.4338,-2.4359,-2.4383,-2.4404,-2.4424,-2.4451,-2.4485,-2.4495,-2.4528,-2.4555,-2.4598,-2.4615,-2.4641,-2.4639,-2.4647,-2.4649,-2.4651,-2.4652,-2.4608,-2.4646,-2.4646,-2.4646,-2.4646,-2.4646,0,-2.4287,-2.4307,-2.4335,-2.4371,-2.4395,-2.4401,-2.4429,-2.4449,-2.4478,-2.4504,-2.453,-2.4566,-2.4596,-2.4621,-2.4652,-2.4668,-2.4672,-2.4675,-2.4675,-2.4679,-2.4651,-2.4644,-2.4672,-2.4672,-2.4672,-2.4672,-2.4672,-2.4672,-2.4305,-2.434,-2.4354,-2.44,-2.4419,-2.4453,-2.4469,-2.4492,-2.4512,-2.4553,-2.4579,-2.4595,-2.462,-2.4654,-2.4682,-2.4688,-2.4699,-2.4703,-2.471,-2.4683,-2.4681,-2.4678,-2.4671,-2.4705,-2.4705,-2.4736,-2.4736,-2.4736]}]]